Bingham Lake, MN

8:12 AM CST on February 25, 2017 (GMT -0600)
Windom Municipal

Weather History for KMWM - July, 2013

Change the Weather History Date:

Monday, July 1, 2013

  Actual Average Record
Temperature  
Mean Temperature 72 °F -  
Max Temperature 84 °F 84 °F 95 °F (1949)
Min Temperature 59 °F 60 °F 33 °F (2001)
Cooling Degree Days 6    
Growing Degree Days 22 (Base 50)    
Moisture  
Dew Point 51 °F    
Average Humidity 52    
Maximum Humidity 82    
Minimum Humidity 25    
Precipitation  
Precipitation 0.00 in - - ()
Sea Level Pressure  
Sea Level Pressure 30.19 in    
Wind  
Wind Speed 3 mph (North)    
Max Wind Speed 10 mph    
Max Gust Speed -    
Visibility 10 miles    
Events      
Averages and records for this station are not official NWS values.
T = Trace of Precipitation, MM = Missing Value Source: NWS Daily Summary

Daily Weather History Graph

Daily Weather History Graph

Search for Another Location

Airport or City:

Trip Planner

Search our weather history database for the weather conditions in past years. The results will help you decide how hot, cold, wet, or windy it might be!

Date:

Astronomy

Jul. 01, 2013 Rise Set
Actual Time 5:41 AM CDT 9:06 PM CDT
Civil Twilight 5:05 AM CDT 9:42 PM CDT
Nautical Twilight 4:18 AM CDT 10:29 PM CDT
Astronomical Twilight 3:19 AM CDT 11:28 PM CDT
Moon 1:20 AM CDT (7/1) 3:16 PM CDT (7/1)
Length of Visible Light 16h 36m
Length of Day
15h 24m
Waning Crescent, 35% of the Moon is Illuminated
Jul 1
Waning Crescent
Jul 8
New
Jul 15
First Quarter
Jul 22
Full
Jul 29
Last Quarter

Hourly Weather History & Observations

Time (CDT) Temp. Dew Point Humidity Pressure Visibility Wind Dir Wind Speed Gust Speed Precip Events Conditions
12:12 AM 62.6 °F 53.6 °F 72% 30.16 in 10.0 mi Calm Calm - N/A   Clear
12:33 AM 62.6 °F 53.6 °F 72% 30.17 in 10.0 mi Calm Calm - N/A   Clear
12:52 AM 62.6 °F 51.8 °F 68% 30.17 in 10.0 mi Calm Calm - N/A   Clear
1:12 AM 62.6 °F 51.8 °F 68% 30.17 in 10.0 mi Calm Calm - N/A   Clear
1:33 AM 62.6 °F 53.6 °F 72% 30.17 in 10.0 mi Calm Calm - N/A   Clear
1:52 AM 60.8 °F 53.6 °F 77% 30.17 in 10.0 mi Calm Calm - N/A   Clear
2:12 AM 60.8 °F 51.8 °F 72% 30.17 in 10.0 mi Calm Calm - N/A   Clear
2:33 AM 60.8 °F 51.8 °F 72% 30.17 in 10.0 mi Calm Calm - N/A   Clear
2:52 AM 60.8 °F 51.8 °F 72% 30.17 in 10.0 mi Calm Calm - N/A   Clear
3:12 AM 62.6 °F 51.8 °F 68% 30.18 in 10.0 mi Calm Calm - N/A   Clear
3:32 AM 60.8 °F 51.8 °F 72% 30.18 in 10.0 mi Calm Calm - N/A   Clear
3:52 AM 59.0 °F 53.6 °F 82% 30.18 in 10.0 mi Calm Calm - N/A   Clear
4:12 AM 60.8 °F 51.8 °F 72% 30.18 in 10.0 mi Calm Calm - N/A   Clear
4:32 AM 59.0 °F 51.8 °F 77% 30.18 in 10.0 mi NW 3.5 mph - N/A   Clear
4:53 AM 60.8 °F 51.8 °F 72% 30.19 in 10.0 mi NW 3.5 mph - N/A   Clear
5:12 AM 60.8 °F 51.8 °F 72% 30.19 in 10.0 mi Calm Calm - N/A   Clear
5:32 AM 60.8 °F 51.8 °F 72% 30.19 in 10.0 mi NW 3.5 mph - N/A   Clear
5:53 AM 59.0 °F 51.8 °F 77% 30.20 in 10.0 mi NW 3.5 mph - N/A   Clear
6:12 AM 60.8 °F 51.8 °F 72% 30.20 in 10.0 mi Calm Calm - N/A   Clear
6:32 AM 60.8 °F 51.8 °F 72% 30.20 in 10.0 mi Calm Calm - N/A   Clear
6:53 AM 60.8 °F 53.6 °F 77% 30.21 in 10.0 mi NNW 4.6 mph - N/A   Clear
7:12 AM 62.6 °F 53.6 °F 72% 30.21 in 10.0 mi NNW 8.1 mph - N/A   Clear
7:32 AM 64.4 °F 53.6 °F 68% 30.21 in 10.0 mi NNW 9.2 mph - N/A   Clear
7:53 AM 66.2 °F 53.6 °F 64% 30.21 in 10.0 mi NNW 9.2 mph - N/A   Clear
8:12 AM 69.8 °F 55.4 °F 60% 30.22 in 10.0 mi NNW 6.9 mph - N/A   Clear
8:32 AM 69.8 °F 53.6 °F 56% 30.22 in 10.0 mi NNW 8.1 mph - N/A   Clear
8:53 AM 73.4 °F 53.6 °F 50% 30.22 in 10.0 mi NNW 10.4 mph - N/A   Clear
9:12 AM 73.4 °F 53.6 °F 50% 30.22 in 10.0 mi NNW 9.2 mph - N/A   Clear
9:32 AM 75.2 °F 53.6 °F 47% 30.22 in 10.0 mi North 8.1 mph - N/A   Clear
9:53 AM 77.0 °F 53.6 °F 44% 30.22 in 10.0 mi North 9.2 mph - N/A   Clear
10:12 AM 77.0 °F 53.6 °F 44% 30.22 in 10.0 mi North 6.9 mph - N/A   Clear
10:32 AM 78.8 °F 53.6 °F 42% 30.22 in 10.0 mi North 8.1 mph - N/A   Clear
10:53 AM 78.8 °F 53.6 °F 42% 30.22 in 10.0 mi North 3.5 mph - N/A   Clear
11:12 AM 80.6 °F 51.8 °F 37% 30.22 in 10.0 mi North 4.6 mph - N/A   Clear
11:32 AM 80.6 °F 51.8 °F 37% 30.21 in 10.0 mi North - - N/A   Clear
11:53 AM 80.6 °F 48.2 °F 32% 30.22 in 10.0 mi NNE 3.5 mph - N/A   Clear
12:12 PM 80.6 °F 46.4 °F 30% 30.21 in 10.0 mi NNE 9.2 mph - N/A   Clear
12:32 PM 80.6 °F 46.4 °F 30% 30.22 in 10.0 mi NNE 6.9 mph - N/A   Clear
12:52 PM 80.6 °F 46.4 °F 30% 30.21 in 10.0 mi NNE 9.2 mph - N/A   Scattered Clouds
1:12 PM 82.4 °F 46.4 °F 28% 30.21 in 10.0 mi North 5.8 mph - N/A   Clear
1:33 PM 82.4 °F 44.6 °F 26% 30.20 in 10.0 mi ENE 8.1 mph - N/A   Clear
1:52 PM 82.4 °F 42.8 °F 25% 30.20 in 10.0 mi NNE 6.9 mph - N/A   Scattered Clouds
2:12 PM 82.4 °F 46.4 °F 28% 30.20 in 10.0 mi NNE 5.8 mph - N/A   Scattered Clouds
2:33 PM 80.6 °F 44.6 °F 28% 30.19 in 10.0 mi NNE 5.8 mph - N/A   Scattered Clouds
2:52 PM 82.4 °F 46.4 °F 28% 30.19 in 10.0 mi NNW 5.8 mph - N/A   Scattered Clouds
3:12 PM 82.4 °F 46.4 °F 28% 30.19 in 10.0 mi North 8.1 mph - N/A   Clear
3:33 PM 84.2 °F 46.4 °F 27% 30.18 in 10.0 mi North 10.4 mph - N/A   Clear
3:52 PM 84.2 °F 46.4 °F 27% 30.18 in 10.0 mi NNE 5.8 mph - N/A   Scattered Clouds
4:12 PM 80.6 °F 48.2 °F 32% 30.18 in 10.0 mi NNE 5.8 mph - N/A   Mostly Cloudy
4:33 PM 78.8 °F 48.2 °F 34% 30.18 in 10.0 mi NNE 9.2 mph - N/A   Scattered Clouds
4:52 PM 80.6 °F 48.2 °F 32% 30.18 in 10.0 mi NNE 6.9 mph - N/A   Clear
5:12 PM 82.4 °F 46.4 °F 28% 30.18 in 10.0 mi NE 6.9 mph - N/A   Scattered Clouds
5:33 PM 82.4 °F 48.2 °F 30% 30.17 in 10.0 mi Calm Calm - N/A   Scattered Clouds
5:52 PM 80.6 °F 48.2 °F 32% 30.17 in 10.0 mi NE 9.2 mph - N/A   Scattered Clouds
6:12 PM 80.6 °F 48.2 °F 32% 30.17 in 10.0 mi NNE 4.6 mph - N/A   Clear
6:33 PM 80.6 °F 48.2 °F 32% 30.17 in 10.0 mi North 6.9 mph - N/A   Clear
6:52 PM 80.6 °F 50.0 °F 34% 30.17 in 10.0 mi NNE 5.8 mph - N/A   Clear
7:12 PM 78.8 °F 50.0 °F 36% 30.17 in 10.0 mi NNE 5.8 mph - N/A   Clear
7:32 PM 78.8 °F 51.8 °F 39% 30.17 in 10.0 mi Calm Calm - N/A   Clear
7:52 PM 78.8 °F 51.8 °F 39% 30.17 in 10.0 mi Calm Calm - N/A   Clear
8:13 PM 77.0 °F 51.8 °F 41% 30.17 in 10.0 mi NE 3.5 mph - N/A   Clear
8:32 PM 75.2 °F 51.8 °F 44% 30.17 in 10.0 mi NNE 3.5 mph - N/A   Clear
8:52 PM 73.4 °F 53.6 °F 50% 30.17 in 10.0 mi NNE 4.6 mph - N/A   Clear
9:13 PM 71.6 °F 53.6 °F 53% 30.17 in 10.0 mi NE 5.8 mph - N/A   Clear
9:32 PM 69.8 °F 53.6 °F 56% 30.17 in 10.0 mi NE 3.5 mph - N/A   Clear
9:52 PM 68.0 °F 55.4 °F 64% 30.17 in 10.0 mi ENE 5.8 mph - N/A   Clear
10:13 PM 68.0 °F 55.4 °F 64% 30.18 in 10.0 mi East 3.5 mph - N/A   Clear
10:32 PM 68.0 °F 53.6 °F 60% 30.17 in 10.0 mi Calm Calm - N/A   Clear
10:52 PM 66.2 °F 55.4 °F 68% 30.17 in 10.0 mi Calm Calm - N/A   Clear
11:13 PM 64.4 °F 55.4 °F 73% 30.17 in 10.0 mi Calm Calm - N/A   Clear
11:32 PM 66.2 °F 55.4 °F 68% 30.17 in 10.0 mi Calm Calm - N/A   Mostly Cloudy
11:52 PM 66.2 °F 55.4 °F 68% 30.17 in 10.0 mi Calm Calm - N/A   Overcast